Location: Mentone
(34.5413°N, 85.5351°W)
Time: 05:28:14
(UTC-05:00)

Tiros 1 despin weight - Visible Passes

Search period start: 30 May 2015 00:00
Search period end: 09 June 2015 00:00
Orbit: 598 x 647 km, 48.2° (Epoch: 29 May)

Date Brightness Start Highest point End Pass type
(mag) Time Alt. Az. Time Alt. Az. Time Alt. Az.
30 May ? 01:08:58 10° NNW 01:12:27 22° NNE 01:15:17 13° ENE visible
30 May ? 02:50:05 10° NW 02:57:11 26° ESE 02:59:14 10° SE visible
30 May ? 04:35:01 14° WSW 04:35:55 15° SW 04:38:28 10° SSW visible
30 May ? 20:18:19 10° WSW 20:22:36 49° NNW 20:26:57 10° NE visible
30 May ? 22:02:07 10° NW 22:05:05 17° NNW 22:08:01 10° NNE visible
30 May ? 23:45:33 10° NNW 23:48:07 15° N 23:50:43 10° NE visible
31 May ? 01:26:46 10° NW 01:29:08 25° NNW 01:29:08 25° NNW visible
31 May ? 20:37:01 10° W 20:40:53 29° NNW 20:44:45 10° NE visible
31 May ? 22:21:14 10° NW 22:23:40 14° N 22:26:06 10° NNE visible
01 Jun ? 00:03:33 10° NNW 00:06:41 18° NNE 00:07:58 17° NE visible
01 Jun ? 01:44:36 10° NW 01:45:02 13° NW 01:45:02 13° NW visible
01 Jun ? 20:56:03 10° WNW 20:59:19 19° NNW 21:02:33 10° NNE visible
01 Jun ? 22:39:56 10° NNW 22:42:18 14° N 22:44:41 10° NE visible
02 Jun ? 00:21:22 10° NW 00:24:16 24° N 00:24:16 24° N visible
02 Jun ? 21:15:12 10° NW 21:17:51 15° N 21:20:28 10° NNE visible
02 Jun ? 22:58:06 10° NNW 23:00:53 16° NNE 23:03:40 10° NE visible
03 Jun ? 00:39:10 10° NW 00:40:46 20° NNW 00:40:46 20° NNW visible
03 Jun ? 21:34:10 10° NNW 21:36:27 14° N 21:38:46 10° NNE visible
03 Jun ? 23:15:58 10° NNW 23:19:24 21° NNE 23:20:16 20° NE visible
04 Jun ? 00:57:04 10° NW 00:57:23 12° NW 00:57:23 12° NW visible
04 Jun ? 21:52:34 10° NNW 21:55:04 15° N 21:57:37 10° NE visible
04 Jun ? 23:33:44 10° NW 23:36:58 30° N 23:36:58 30° N visible
05 Jun ? 20:28:14 10° NW 20:30:38 14° N 20:33:00 10° NNE visible
05 Jun ? 22:10:32 10° NNW 22:13:38 18° NNE 22:16:35 11° ENE visible
05 Jun ? 23:51:35 10° NW 23:53:43 27° NW 23:53:43 27° NW visible
06 Jun ? 20:46:55 10° NNW 20:49:14 14° N 20:51:35 10° NE visible
06 Jun ? 22:28:20 10° NW 22:32:05 26° NNE 22:33:23 23° NE visible
07 Jun ? 00:09:35 10° WNW 00:10:30 16° WNW 00:10:30 16° WNW visible
07 Jun ? 21:05:04 10° NNW 21:07:50 16° NNE 21:10:38 10° NE visible
07 Jun ? 22:46:07 10° NW 22:50:13 43° NNE 22:50:13 43° NNE visible
08 Jun ? 21:22:55 10° NNW 21:26:20 21° NNE 21:29:48 10° ENE visible
08 Jun ? 23:04:01 10° NW 23:07:07 44° NW 23:07:07 44° NW visible
